Weather History for Jefferson City, MO

Change the Weather History Date:

Thursday, July 4, 2013

  Actual Average Record
Temperature  
Mean Temperature 72 °F -  
Max Temperature 86 °F 89 °F 103 °F (1936)
Min Temperature 59 °F 64 °F 46 °F (1967)
Cooling Degree Days 6    
Growing Degree Days 22 (Base 50)    
Moisture  
Dew Point 58 °F    
Average Humidity 62    
Maximum Humidity 90    
Minimum Humidity 31    
Precipitation  
Precipitation 0.07 in - - ()
Sea Level Pressure  
Sea Level Pressure 30.00 in    
Wind  
Wind Speed 3 mph (ESE)    
Max Wind Speed 8 mph    
Max Gust Speed -    
Visibility 10 miles    
Events Rain , Thunderstorm    
Averages and records for this station are not official NWS values.
T = Trace of Precipitation, MM = Missing Value Source: NWS Daily Summary

Daily Weather History Graph

Daily Weather History Graph

Search for Another Location

Airport:

Trip Planner

Search our weather history database for the weather conditions in past years. The results will help you decide how hot, cold, wet, or windy it might be!

Date:

Astronomy

Jul. 04, 2013 Rise Set
Actual Time 5:49 AM CDT 8:36 PM CDT
Civil Twilight 5:18 AM CDT 9:07 PM CDT
Nautical Twilight 4:38 AM CDT 9:47 PM CDT
Astronomical Twilight 3:53 AM CDT 10:32 PM CDT
Moon 3:05 AM CDT (7/4) 5:42 PM CDT (7/4)
Length of Visible Light 15h 49m
Length of Day
14h 46m
Waning Crescent, 11% of the Moon is Illuminated
Jul 4
Waning Crescent
Jul 8
New
Jul 15
First Quarter
Jul 22
Full
Jul 29
Last Quarter

Hourly Weather History & Observations

Time (CDT) Temp. Heat Index Dew Point Humidity Pressure Visibility Wind Dir Wind Speed Gust Speed Precip Events Conditions
12:53 AM 63.0 °F - 55.0 °F 75% 30.02 in 10.0 mi ESE 3.5 mph - N/A   Clear
1:53 AM 62.1 °F - 55.0 °F 78% 30.02 in 10.0 mi Calm Calm - N/A   Clear
2:53 AM 61.0 °F - 55.9 °F 83% 30.01 in 10.0 mi East 3.5 mph - N/A   Clear
3:53 AM 60.1 °F - 55.0 °F 83% 30.01 in 10.0 mi SE 6.9 mph - N/A   Clear
4:53 AM 59.0 °F - 55.9 °F 90% 30.02 in 10.0 mi SE 4.6 mph - N/A   Clear
5:53 AM 60.1 °F - 55.9 °F 86% 30.02 in 10.0 mi Calm Calm - N/A   Clear
6:53 AM 60.1 °F - 55.9 °F 86% 30.03 in 10.0 mi Calm Calm - N/A   Clear
7:53 AM 66.0 °F - 57.0 °F 73% 30.05 in 10.0 mi ESE 3.5 mph - N/A   Clear
8:53 AM 71.1 °F - 57.9 °F 63% 30.04 in 10.0 mi Calm Calm - N/A   Clear
9:53 AM 75.0 °F - 57.0 °F 53% 30.04 in 10.0 mi Calm Calm - N/A   Clear
10:53 AM 79.0 °F - 57.9 °F 48% 30.04 in 10.0 mi Variable 3.5 mph - N/A   Clear
11:53 AM 81.0 °F 81.1 °F 57.9 °F 45% 30.03 in 10.0 mi Variable 3.5 mph - N/A   Clear
12:53 PM 82.9 °F 82.1 °F 55.9 °F 39% 30.02 in 10.0 mi Variable 5.8 mph - N/A   Clear
1:53 PM 84.9 °F 83.2 °F 53.1 °F 33% 30.00 in 10.0 mi SE 5.8 mph - N/A   Clear
2:53 PM 84.0 °F - 51.1 °F 32% 29.99 in 10.0 mi SE 6.9 mph - N/A   Clear
3:53 PM 82.9 °F 81.9 °F 54.0 °F 37% 29.98 in 10.0 mi SSW 3.5 mph - N/A   Clear
4:53 PM 84.9 °F - 51.1 °F 31% 29.96 in 10.0 mi SE 4.6 mph - N/A   Clear
5:53 PM 84.0 °F 82.6 °F 54.0 °F 35% 29.95 in 10.0 mi South 4.6 mph - N/A   Partly Cloudy
6:45 PM 80.6 °F 80.8 °F 57.2 °F 45% 30.00 in 10.0 mi NW 4.6 mph - N/A Thunderstorm Clear
6:53 PM 81.0 °F 81.6 °F 60.1 °F 49% 29.97 in 10.0 mi NW 4.6 mph - N/A Thunderstorm Partly Cloudy
6:56 PM 80.6 °F 81.5 °F 60.8 °F 51% 30.00 in 10.0 mi NNW 4.6 mph - N/A Thunderstorm Partly Cloudy
7:17 PM 78.8 °F - 60.8 °F 54% 30.01 in 10.0 mi NW 3.5 mph - N/A   Mostly Cloudy
7:34 PM 78.8 °F - 60.8 °F 54% 30.00 in 10.0 mi NNW 6.9 mph - N/A Thunderstorm Mostly Cloudy
7:53 PM 77.0 °F - 59.0 °F 54% 29.98 in 10.0 mi SE 8.1 mph - N/A Thunderstorm Overcast
8:53 PM 73.0 °F - 57.9 °F 59% 29.98 in 6.0 mi Calm Calm - 0.04 in Rain , Thunderstorm Thunderstorms and Rain
9:07 PM 71.6 °F - 62.6 °F 73% 30.01 in 9.0 mi Calm Calm - 0.03 in Rain Light Rain
9:23 PM 69.8 °F - 64.4 °F 83% 30.01 in 8.0 mi Calm Calm - 0.03 in Thunderstorm Mostly Cloudy
9:53 PM 68.0 °F - 64.0 °F 87% 29.98 in 5.0 mi East 3.5 mph - 0.03 in   Partly Cloudy
10:53 PM 69.1 °F - 64.0 °F 84% 29.98 in 9.0 mi Calm Calm - N/A   Clear
11:53 PM 68.0 °F - 63.0 °F 84% 29.99 in 10.0 mi Calm Calm - N/A   Partly Cloudy